Regional Weather Roundup
Issued by NWS

Home | Current Version | Previous Version | Text Only | Print | Product List | Glossary On
Versions: 1 2 3 4 5 6 7 8 9 10 11 12 13 14 15 16 17 18 19 20 21 22 23 24 25 26 27 28 29 30 31 32 33 34 35 36 37 38 39 40 41 42 43 44 45 46 47 48 49 50
657
ASUS44 KLIX 221911
RWRLA
LOUISIANA WEATHER ROUNDUP
NATIONAL WEATHER SERVICE NEW ORLEANS LA
200 PM CDT FRI MAY 22 2015

NOTE: "FAIR" INDICATES FEW OR NO CLOUDS BELOW 12,000 FEET WITH NO
      SIGNIFICANT WEATHER AND/OR OBSTRUCTIONS TO VISIBILITY.
      SKY/WX - SKY CONDITION AND SIGNIFICANT WEATHER.
      TMP - AIR TEMPERATURE.    DP   - DEWPOINT TEMPERATURE.
      RH  - RELATIVE HUMIDITY.  PRES - PRESSURE.
      HX  - HEAT INDEX.         WCI  - WIND CHILL INDEX.

*  THESE STATIONS ARE NOT NWS OR FAA STATIONS AND ARE NOT UNDER
   NWS QUALITY CONTROL.

LAZ040-048-061>063-065-066-069-222000-
SOUTHEAST LOUISIANA

CITY           SKY/WX    TMP DP  RH WIND       PRES   REMARKS
N.O. AUDUBON   NOT AVBL
N.O. INTL ARPT MOSUNNY   78  64  61 N9        30.16R
N.O. LAKEFRONT SUNNY     81  64  56 N10       30.17R
SLIDELL        SUNNY     81  67  62 SE5       30.15S
BATON ROUGE    PTSUNNY   80  66  62 CALM      30.16F
BOOTHVILLE     CLOUDY    77  70  79 E10       30.17R
BELLE CHASSE   MOSUNNY   78  65  63 E9        30.15S
BOGALUSA*        N/A     78  61  55 NE6       30.19S
GALLIANO*      PTCLDY    81  69  65 MISG      30.15F
NEW ROADS*     CLOUDY    76  65  67 NE3       30.16F
GONZALES*      FAIR      80  67  64 E5        30.14F
HAMMOND*       CLOUDY    81  63  54 CALM      30.18S
HOUMA*         MOSUNNY   81  70  69 NE7       30.15S
PORT FOURCHON* CLOUDY    79  70  73 E15       30.15F

$$

LAZ041-044-053-054-222000-
SOUTHWEST LOUISIANA

CITY           SKY/WX    TMP DP  RH WIND       PRES   REMARKS
LAKE CHARLES   MOSUNNY   76  66  71 E9        30.15F
LAFAYETTE      CLOUDY    76  67  73 VRB5      30.16F
PATTERSON      PTSUNNY   79  70  73 NE7       30.16F
SALT POINT       N/A     79  70  74 VRB6      30.13F
NEW IBERIA     CLOUDY    79  68  69 NE6       30.16F
CHENAULT AIRPK NOT AVBL

$$

LAZ027-028-222000-
CENTRAL LOUISIANA

CITY           SKY/WX    TMP DP  RH WIND       PRES   REMARKS
FORT POLK      MOSUNNY   71  62  72 VRB3      30.16F
ALEXANDRIA INT CLOUDY    71  62  73 E5        30.17F
ALEXANDRIA     MOSUNNY   75  61  61 MISG      30.17F

$$

LAZ001-002-222000-
NORTHWEST LOUISIANA

CITY           SKY/WX    TMP DP  RH WIND       PRES   REMARKS
SHREVEPORT     MOSUNNY   71  58  63 E7        30.18F
BARKSDALE AFB  SUNNY     71  57  60 VRB7      30.18F
DTN SHREVEPORT SUNNY     70  56  61 MISG      30.18F

$$

LAZ014-016-222000-
NORTHEAST LOUISIANA

CITY           SKY/WX    TMP DP  RH WIND       PRES   REMARKS
MONROE         SUNNY     72  55  55 E8        30.22F
TALLULAH       PTSUNNY   74  53  48 N5        30.21F

$$




USA.gov is the U.S. government's official web portal to all federal, state and local government web resources and services.